Location: Unspecified
(0.0000°N, 0.0000°E)
Time: 18:06:13
(UTC+00:00)

X-37B - Pass Details

Date: 16 January 2021
Orbit: 383 x 391 km, 45.1° (Epoch: 22 January)

Event Time Altitude Azimuth Distance (km) Brightness Sun altitude
Exits shadow 04:57:28 43° 254° (WSW) 550 0.9 -16.9°
Maximum altitude 04:57:52 47° 228° (SW) 522 1.0 -16.8°
Drops below altitude 10° 05:00:56 10° 152° (SSE) 1,407 4.1 -16.0°
Sets 05:03:02 0° 146° (SE) 2,261 5.4 -15.6°
